Regional Weather Roundup
Issued by NWS Wakefield, VA

Home | Current Version | Previous Version | Text Only | Print | Product List | Glossary Off
Versions: 1 2 3 4 5 6 7 8 9 10 11 12 13 14 15 16 17 18 19 20 21 22 23 24 25 26 27 28 29 30 31 32 33 34 35 36 37 38 39 40 41 42 43 44 45 46 47 48 49 50
883 ASUS41 KAKQ 181715 RWRAKQ REGIONAL WEATHER ROUNDUP NATIONAL WEATHER SERVICE WAKEFIELD VA 100 PM EDT WED SEP 18 2019 Note: "fair" indicates few or no clouds below 12,000 feet with no significant weather and/or obstructions to visibility. * = Denotes station may not report precipitation (e.g., rain,snow,etc.), thunder or fog. VAZ042-051-052>054-056-181800- NORTHERN VIRGINIA CITY SKY/WX TMP DP RH WIND PRES REMARKS WASH NATIONAL PTSUNNY 76 52 43 NE9 30.20F DULLES PTSUNNY 75 51 43 E3 30.21S FORT BELVOIR FAIR 77 50 37 CALM 30.20S QUANTICO PTSUNNY 76 53 44 E8 30.21S FREDERICKSBRG* FAIR 75 57 52 N7 30.19S STAFFORD* PTSUNNY 76 56 49 E7 30.24S WARRENTON PTSUNNY 75 50 41 NE3 30.21R CULPEPER* FAIR 75 52 44 S3 30.22S MANASSAS* FAIR 76 53 44 VRB6 30.21S LEESBURG* PTSUNNY 73 52 46 SE5 30.23S WINCHESTER PTSUNNY 72 50 46 CALM 30.21S FRONT ROYAL* FAIR 72 52 49 N5 30.21S LURAY* FAIR 75 46 35 N9 30.21S $$ VAZ048-049-060>072-079>083-181800- CENTRAL AND SOUTH CENTRAL VIRGINIA CITY SKY/WX TMP DP RH WIND PRES REMARKS RICHMOND PTSUNNY 76 53 44 E12 30.18S CHESTERFIELD* FAIR 75 51 43 NE12 30.19S PETERSBURG* PTSUNNY 77 49 38 N10G21 30.18S HANOVER PTSUNNY 76 51 41 E7 30.20F TAPPAHANNOCK* PTSUNNY 76 53 45 N5 30.20S QUINTON* FAIR 75 53 45 N5 30.18S CHARLOTTSVILLE FAIR 76 56 49 NE8 30.20S GORDONSVILLE* FAIR 74 56 52 NE8 30.20S ORANGE* FAIR 73 55 53 NE6 30.21S LOUISA* CLOUDY 72 55 55 E6 30.25R BUMPASS* CLOUDY 76 49 37 N7 30.20S FARMVILLE* PTSUNNY 76 56 49 NE10 30.18R CREWE* FAIR 73 47 39 CALM 30.18S FORT PICKETT* PTSUNNY 76 52 42 E12 30.19S CHASE CITY* FAIR 76 54 46 NE8 30.18S CLARKSVILLE* PTSUNNY 77 54 44 NE7 30.17S SOUTH HILL* PTSUNNY 74 55 51 N7 30.23S LAWRENCEVILLE* PTSUNNY 74 53 47 NE7 30.18S EMPORIA* PTSUNNY 73 54 51 N9 30.18S $$ VAZ088>098-181800- SOUTHEAST VIRGINIA CITY SKY/WX TMP DP RH WIND PRES REMARKS NORFOLK FAIR 75 56 51 NE21G29 30.15S VIRGINIA BEACH FAIR 74 52 46 NE20G28 30.14S NORFOLK NAVAL PTSUNNY 75 54 47 NE17 30.17S WEST POINT* PTSUNNY 72 54 53 NE7 30.20R SALUDA* FAIR 73 55 53 N7G16 30.18S NEWPORT NEWS FAIR 75 55 49 NE13G21 30.17S LANGLEY AFB MOSUNNY 71 57 60 NE12 30.16S FORT EUSTIS PTSUNNY 73 49 41 NE9G16 30.15S WILLIAMSBURG* FAIR 79 57 47 CALM 30.18S HR EXEC AP* CLOUDY 74 55 51 NE12G21 30.16S FRANKLIN* FAIR 74 51 45 NE14G20 30.16S US460-WAKEFLD PTSUNNY 74 53 48 VRB7 30.17S $$ VAZ020-022-025-037-045-181800- WEST CENTRAL AND SOUTHWEST VIRGINIA CITY SKY/WX TMP DP RH WIND PRES REMARKS STAUNTON* FAIR 74 50 41 NE3 30.23S WAYNESBORO* FAIR 70 54 56 N5 30.22S HOT SPRINGS VA FAIR 63 55 77 CALM 30.28S LYNCHBURG FAIR 77 58 51 E10 30.20S DANVILLE PTSUNNY 75 56 51 MISG 30.17F SOUTH BOSTON* FAIR 77 52 41 E6 30.17F MARTINSVILLE CLOUDY 72 61 68 NE5 30.22S ROANOKE CLOUDY 69 61 75 SE8 30.22S BLACKSBURG CLOUDY 65 62 90 E3 30.26R DUBLIN* CLOUDY 68 58 70 SE7 30.24S MARION* CLOUDY 66 61 82 E7 30.25S HILLSVILLE* CLOUDY 64 59 81 E9 30.23S RICHLANDS* CLOUDY 70 60 68 SE8 30.20R WISE* PTSUNNY 79 61 53 S7 30.18S ABINGDON* CLOUDY 75 62 62 E12 30.16S $$ MDZ021>025-VAZ099-100-181800- SOUTHERN MARYLAND AND THE DELMARVA PENINSULA CITY SKY/WX TMP DP RH WIND PRES REMARKS PATUXENT RIVER PTSUNNY 74 51 44 N10 30.19S BAY BRIDGE APT PTSUNNY 73 55 53 N10 30.21S LEONARDTOWN FAIR 73 54 49 N3 30.21S DOVER PTSUNNY 72 53 51 NE8 30.20F GEORGETOWN PTSUNNY 71 56 58 NE12 30.20S EASTON PTSUNNY 73 52 46 NE8 30.24S CAMBRIDGE MOSUNNY 73 52 46 N10G16 30.19S SALISBURY CLOUDY 72 53 51 NE17 30.19S TANGIER CLOUDY 73 55 53 NE12 30.17S OCEAN CITY FAIR 72 55 55 NE16G22 30.19R WALLOPS ISLAND PTSUNNY 71 54 54 NE18G29 30.18S ACCOMACK* CLOUDY 71 56 58 NE14G20 30.17S $$ NCZ012>017-030>032-181800- NORTH CENTRAL AND EASTERN NORTH CAROLINA CITY SKY/WX TMP DP RH WIND PRES REMARKS ROANOKE RAPIDS CLOUDY 72 61 68 NE9 30.16S RALEIGH FAIR 75 55 49 E9G18 30.16S ELIZABETH CITY PTSUNNY 75 55 49 N17G26 30.13S AHOSKIE* PTSUNNY 73 53 50 NE12G17 30.15S EDENTON* FAIR 77 56 48 E17G23 30.14S CURRITUCK* FAIR 73 56 55 NE17G31 30.13F KILL DEVIL HLS PTSUNNY 73 54 51 N10G23 30.10S MANTEO NOT AVBL CAPE HATTERAS FAIR N/A N/A N/A NE18G30 30.07R TARBORO* PTSUNNY 76 56 48 NE12G20 30.14S GOLDSBORO FAIR 77 55 45 NE16G24 30.11S WASHINGTON PTSUNNY 76 54 47 N15G21 30.13S GREENVILLE FAIR 77 54 44 NE15G22 30.14S NEW BERN FAIR 77 56 48 NE18G31 30.11R WILMINGTON FAIR 80 53 39 NE18G25 30.08F $$ VAZ048-181800- ELSEWHERE CITY SKY/WX TMP DP RH WIND PRES REMARKS HARRISBURG PA FAIR 72 44 36 MISG 30.22F BALTIMORE FAIR 73 52 47 E10 30.21S ANNAPOLIS PTSUNNY 76 55 48 N8 30.21S ANDREWS AFB FAIR 75 49 41 E5 30.20S PHILADELPHIA FAIR 74 49 41 NE12G20 30.22F HENDERSON NC FAIR 74 51 44 N10 30.17S GREENSBORO PTSUNNY 73 57 57 NE8 30.17F ROCKY MOUNT FAIR 77 56 48 NE14G21 30.15S $$ VAZ100-181800- MARINE STATION/POSITION TIME TEMP WIND PRES WAVE SWELL AIR SEA DIR/SP/G HT/PER HT/PER (UTC) (F) (DEG/KT/KT) (MB) (FT/S) (FT/S) CAPE MAY NJ 1624 68 73 50/ 12/ 18 1022.3 LEWES DE 1624 68 72 80/ 18/ 23 1022.6 15NM E FENWICK I 1650 67 72 30/ 19/ 23 1021.6R 7/ 7 OCEAN-CITY-INLET 1624 70 72 70/ 10/ 16 1023.0 44089 WALLOPS IS 1700 75 N/A 7/ 8 2/11 WACHAPREAGUE VA 1624 70 73 50/ 20/ 23 1021.2 THOMAS POINT MD 1700 69 76 350/ 8/ 9 1023.9S GOOSES REEF MD 1700 70 30/ 8/ 10 1023.8 1 COVE POINT MD 1624 69 10/ 10/ 13 1023.1 SOLOMONS ISLAND 1624 71 77 40/ 7/ 15 1022.0 BISHOPS HEAD MD 1624 72 74 40/ 12/ 14 1022.4 PINEY POINT MD 1624 90/ 8/ 11 N/A POTOMAC MD 1700 71 77 50/ 10/ 12 1024.8 1 CAMBRIDGE MD 1624 71 76 30/ 10/ 13 1022.2 LEWISETTA VA 1624 70 74 40/ 6/ 8 1022.3 RAPPAHANNOCK LGT 1624 20/ 14/ 17 1022.3 STINGRAY PT 1700 71 77 10/ 14/ 16 1025.9F 2/ 4 YORK RVR RNG VA 1624 71 50/ 16/ 20 1022.0 YORKTOWN VA 1624 71 78 30/ 14/ 18 1021.3 JAMESTOWN VA 1700 72 81 1022.1 0 DOMINION TERM VA 1624 72 30/ 7/ 9 1021.5 KIPTOPEKE VA 1624 77 70/ 12/ 19 N/A CAPE HENRY VA 1624 71 40/ 20/ 23 1021.2 WILLOUBY STN VA 1624 71 50/ 15/ 20 1020.7 S CRANEY ISL VA 1624 71 50/ 19/ 22 1020.9 CAPE HENRY BUOY 1700 75 N/A 7/ 8 2/11 1ST LANDING BUOY 1650 71 60/ 17/ 23 1020.6R 64NM E OF VA BCH 1650 69 69 40/ 21/ 27 1019.1R 11/ 8 DUCK PIER NC 1624 71 30/ 24/ 28 1019.4 44100 DUCK FRF 1700 75 N/A 9/ 9 3/11 44056 DUCK FRF 1700 77 N/A 8/ 9 2/11 OREGON INLET NC 1624 71 74 20/ 18/ 23 1018.9 HATTERAS NC 1624 72 74 20/ 25/ 29 1017.9 DIAMOND SHLS NC 1650 73 75 20/ 27/ 35 1016.5R 10/ 9 7/ 9 CAPE LOOKOUT NC 1600 74 10/ 20/ 25 1018.1R $$

USA.gov is the U.S. government's official web portal to all federal, state and local government web resources and services.